Time,TemperatureF,DewpointF,PressureIn,WindDirection,WindDirectionDegrees,WindSpeedMPH,WindSpeedGustMPH,Humidity,HourlyPrecipIn,Conditions,Clouds,dailyrainin,SoftwareType,DateUTC
2013-04-25 00:08:00,52.3,49.2,29.61,ESE,112,2.2,-999.0,89,-99.99,,,0.00,Acu-Link.com,2013-04-25 04:08:00,
2013-04-25 00:23:00,51.4,48.6,29.60,NE,45,1.1,-999.0,90,-99.99,,,0.00,Acu-Link.com,2013-04-25 04:23:00,
2013-04-25 00:38:00,50.5,48.6,29.58,NW,315,0.0,-999.0,93,-99.99,,,0.00,Acu-Link.com,2013-04-25 04:38:00,
2013-04-25 00:53:00,50.4,48.5,29.59,ENE,67,2.7,-999.0,93,-99.99,,,0.00,Acu-Link.com,2013-04-25 04:53:00,
2013-04-25 01:08:00,50.0,46.6,29.59,NE,45,1.7,-999.0,88,-99.99,,,0.00,Acu-Link.com,2013-04-25 05:08:00,
2013-04-25 01:23:00,50.2,47.1,29.59,ESE,112,1.7,-999.0,89,-99.99,,,0.00,Acu-Link.com,2013-04-25 05:23:00,
2013-04-25 01:38:00,50.0,46.9,29.58,NNE,22,1.1,-999.0,89,-99.99,,,0.00,Acu-Link.com,2013-04-25 05:38:00,
2013-04-25 01:54:00,50.0,46.9,29.58,NW,315,0.0,-999.0,89,-99.99,,,0.00,Acu-Link.com,2013-04-25 05:54:00,
2013-04-25 02:09:00,50.9,47.2,29.58,East,90,0.0,-999.0,87,-99.99,,,0.00,Acu-Link.com,2013-04-25 06:09:00,
2013-04-25 02:24:00,52.3,47.3,29.60,West,270,3.2,-999.0,83,-99.99,,,0.00,Acu-Link.com,2013-04-25 06:24:00,
2013-04-25 02:39:00,53.6,49.8,29.63,SW,225,17.6,-999.0,87,-99.99,,,0.01,Acu-Link.com,2013-04-25 06:39:00,
2013-04-25 02:54:00,52.2,50.2,29.63,West,270,7.8,-999.0,93,-99.99,,,0.03,Acu-Link.com,2013-04-25 06:54:00,
2013-04-25 03:09:00,51.8,50.1,29.63,WSW,247,4.7,-999.0,94,-99.99,,,0.03,Acu-Link.com,2013-04-25 07:09:00,
2013-04-25 03:24:00,51.6,49.6,29.63,SSW,202,2.2,-999.0,93,-99.99,,,0.03,Acu-Link.com,2013-04-25 07:24:00,
2013-04-25 03:40:00,52.3,48.9,29.65,West,270,8.3,-999.0,88,-99.99,,,0.03,Acu-Link.com,2013-04-25 07:40:00,
2013-04-25 03:55:00,49.8,45.5,29.67,WSW,247,14.0,-999.0,85,-99.99,,,0.03,Acu-Link.com,2013-04-25 07:55:00,
2013-04-25 04:11:00,47.8,44.1,29.69,West,270,15.0,-999.0,87,-99.99,,,0.03,Acu-Link.com,2013-04-25 08:11:00,
2013-04-25 04:26:00,46.9,42.9,29.71,WSW,247,7.8,-999.0,86,-99.99,,,0.04,Acu-Link.com,2013-04-25 08:26:00,
2013-04-25 04:41:00,44.8,40.0,29.75,West,270,14.5,-999.0,83,-99.99,,,0.04,Acu-Link.com,2013-04-25 08:41:00,
2013-04-25 04:57:00,43.7,38.9,29.76,West,270,10.4,-999.0,83,-99.99,,,0.04,Acu-Link.com,2013-04-25 08:57:00,
2013-04-25 05:12:00,43.0,37.9,29.77,West,270,11.9,-999.0,82,-99.99,,,0.04,Acu-Link.com,2013-04-25 09:12:00,
2013-04-25 05:27:00,41.7,35.7,29.78,WSW,247,13.5,-999.0,79,-99.99,,,0.04,Acu-Link.com,2013-04-25 09:27:00,
2013-04-25 05:43:00,41.0,35.3,29.80,WNW,292,4.7,-999.0,80,-99.99,,,0.04,Acu-Link.com,2013-04-25 09:43:00,
2013-04-25 05:58:00,40.8,35.1,29.82,West,270,8.3,-999.0,80,-99.99,,,0.04,Acu-Link.com,2013-04-25 09:58:00,
2013-04-25 06:13:00,40.5,34.8,29.83,West,270,7.8,-999.0,80,-99.99,,,0.04,Acu-Link.com,2013-04-25 10:13:00,
2013-04-25 06:28:00,39.7,33.4,29.85,West,270,11.9,-999.0,78,-99.99,,,0.04,Acu-Link.com,2013-04-25 10:28:00,
2013-04-25 06:43:00,38.3,32.7,29.87,NNW,337,14.0,-999.0,80,-99.99,,,0.04,Acu-Link.com,2013-04-25 10:43:00,
2013-04-25 06:58:00,37.9,32.0,29.89,SW,225,6.8,-999.0,79,-99.99,,,0.04,Acu-Link.com,2013-04-25 10:58:00,
2013-04-25 07:13:00,37.6,32.0,29.89,West,270,8.9,-999.0,80,-99.99,,,0.04,Acu-Link.com,2013-04-25 11:13:00,
2013-04-25 07:29:00,37.6,32.0,29.90,WNW,292,7.8,-999.0,80,-99.99,,,0.04,Acu-Link.com,2013-04-25 11:29:00,
2013-04-25 07:44:00,37.8,31.9,29.90,WSW,247,18.6,-999.0,79,-99.99,,,0.04,Acu-Link.com,2013-04-25 11:44:00,
2013-04-25 07:59:00,37.2,32.2,29.92,WSW,247,20.2,-999.0,82,-99.99,,,0.04,Acu-Link.com,2013-04-25 11:59:00,
2013-04-25 08:14:00,37.4,31.5,29.93,West,270,16.1,-999.0,79,-99.99,,,0.04,Acu-Link.com,2013-04-25 12:14:00,
2013-04-25 08:29:00,36.9,31.0,29.94,SW,225,13.5,-999.0,79,-99.99,,,0.04,Acu-Link.com,2013-04-25 12:29:00,
2013-04-25 08:44:00,36.3,30.7,29.94,SW,225,13.5,-999.0,80,-99.99,,,0.04,Acu-Link.com,2013-04-25 12:44:00,
2013-04-25 09:05:00,36.3,30.7,29.96,WNW,292,6.8,-999.0,80,-99.99,,,0.04,Acu-Link.com,2013-04-25 13:05:00,
2013-04-25 09:20:00,36.5,30.9,29.95,WNW,292,17.1,-999.0,80,-99.99,,,0.04,Acu-Link.com,2013-04-25 13:20:00,
2013-04-25 09:35:00,37.2,31.0,29.96,West,270,15.0,-999.0,78,-99.99,,,0.04,Acu-Link.com,2013-04-25 13:35:00,
2013-04-25 09:51:00,37.8,31.9,29.96,SW,225,10.4,-999.0,79,-99.99,,,0.04,Acu-Link.com,2013-04-25 13:51:00,
2013-04-25 10:07:00,37.9,30.7,29.97,West,270,12.5,-999.0,75,-99.99,,,0.04,Acu-Link.com,2013-04-25 14:07:00,
2013-04-25 10:22:00,38.5,31.3,29.99,WSW,247,9.9,-999.0,75,-99.99,,,0.04,Acu-Link.com,2013-04-25 14:22:00,
2013-04-25 10:38:00,37.6,30.7,29.99,North,0,9.9,-999.0,76,-99.99,,,0.04,Acu-Link.com,2013-04-25 14:38:00,
2013-04-25 10:53:00,37.4,30.2,30.01,West,270,6.8,-999.0,75,-99.99,,,0.04,Acu-Link.com,2013-04-25 14:53:00,
2013-04-25 11:08:00,38.5,30.9,30.02,SW,225,10.4,-999.0,74,-99.99,,,0.04,Acu-Link.com,2013-04-25 15:08:00,
2013-04-25 11:24:00,39.4,31.8,30.02,WSW,247,7.8,-999.0,74,-99.99,,,0.04,Acu-Link.com,2013-04-25 15:24:00,
2013-04-25 11:39:00,38.7,31.1,30.02,SSW,202,10.4,-999.0,74,-99.99,,,0.04,Acu-Link.com,2013-04-25 15:39:00,
2013-04-25 11:54:00,39.6,31.3,30.02,WSW,247,11.9,-999.0,72,-99.99,,,0.04,Acu-Link.com,2013-04-25 15:54:00,
2013-04-25 12:09:00,39.9,31.3,30.02,WSW,247,16.6,-999.0,71,-99.99,,,0.04,Acu-Link.com,2013-04-25 16:09:00,
2013-04-25 12:25:00,40.1,31.5,30.03,SW,225,14.0,-999.0,71,-99.99,,,0.04,Acu-Link.com,2013-04-25 16:25:00,
2013-04-25 12:40:00,41.5,32.1,30.03,West,270,7.3,-999.0,69,-99.99,,,0.04,Acu-Link.com,2013-04-25 16:40:00,
2013-04-25 12:55:00,40.6,32.3,30.04,West,270,16.6,-999.0,72,-99.99,,,0.04,Acu-Link.com,2013-04-25 16:55:00,
2013-04-25 13:10:00,40.3,31.7,30.05,West,270,8.9,-999.0,71,-99.99,,,0.04,Acu-Link.com,2013-04-25 17:10:00,
2013-04-25 13:26:00,42.3,32.5,30.06,SW,225,8.3,-999.0,68,-99.99,,,0.04,Acu-Link.com,2013-04-25 17:26:00,
2013-04-25 13:44:00,42.8,31.9,30.05,West,270,11.4,-999.0,65,-99.99,,,0.04,Acu-Link.com,2013-04-25 17:44:00,
2013-04-25 13:59:00,44.8,31.4,30.05,SW,225,17.6,-999.0,59,-99.99,,,0.04,Acu-Link.com,2013-04-25 17:59:00,
2013-04-25 14:15:00,45.1,30.4,30.06,West,270,11.4,-999.0,56,-99.99,,,0.04,Acu-Link.com,2013-04-25 18:15:00,
2013-04-25 14:30:00,45.9,29.7,30.07,West,270,9.4,-999.0,53,-99.99,,,0.04,Acu-Link.com,2013-04-25 18:30:00,
2013-04-25 14:46:00,45.5,28.9,30.06,SW,225,4.7,-999.0,52,-99.99,,,0.04,Acu-Link.com,2013-04-25 18:46:00,
2013-04-25 15:01:00,47.1,27.4,30.06,SW,225,6.8,-999.0,46,-99.99,,,0.04,Acu-Link.com,2013-04-25 19:01:00,
2013-04-25 15:16:00,47.3,28.6,30.05,West,270,13.0,-999.0,48,-99.99,,,0.04,Acu-Link.com,2013-04-25 19:16:00,
2013-04-25 15:31:00,47.3,26.5,30.06,South,180,10.4,-999.0,44,-99.99,,,0.04,Acu-Link.com,2013-04-25 19:31:00,
2013-04-25 15:47:00,48.2,26.8,30.06,West,270,8.9,-999.0,43,-99.99,,,0.04,Acu-Link.com,2013-04-25 19:47:00,
2013-04-25 16:02:00,49.1,25.8,30.07,West,270,10.9,-999.0,40,-99.99,,,0.04,Acu-Link.com,2013-04-25 20:02:00,
2013-04-25 16:17:00,49.6,26.3,30.06,West,270,6.3,-999.0,40,-99.99,,,0.04,Acu-Link.com,2013-04-25 20:17:00,
2013-04-25 16:32:00,49.8,25.2,30.08,West,270,12.5,-999.0,38,-99.99,,,0.04,Acu-Link.com,2013-04-25 20:32:00,
2013-04-25 16:48:00,50.7,24.7,30.07,North,0,6.8,-999.0,36,-99.99,,,0.04,Acu-Link.com,2013-04-25 20:48:00,
2013-04-25 17:04:00,49.5,24.3,30.08,West,270,8.3,-999.0,37,-99.99,,,0.04,Acu-Link.com,2013-04-25 21:04:00,
2013-04-25 17:19:00,49.8,24.6,30.09,South,180,3.2,-999.0,37,-99.99,,,0.04,Acu-Link.com,2013-04-25 21:19:00,
2013-04-25 17:34:00,48.7,21.6,30.09,SW,225,7.8,-999.0,34,-99.99,,,0.04,Acu-Link.com,2013-04-25 21:34:00,
2013-04-25 17:50:00,48.7,23.0,30.08,WSW,247,6.8,-999.0,36,-99.99,,,0.04,Acu-Link.com,2013-04-25 21:50:00,
2013-04-25 18:05:00,49.8,23.9,30.08,West,270,8.3,-999.0,36,-99.99,,,0.04,Acu-Link.com,2013-04-25 22:05:00,
2013-04-25 18:20:00,48.7,23.0,30.09,WSW,247,4.7,-999.0,36,-99.99,,,0.04,Acu-Link.com,2013-04-25 22:20:00,
2013-04-25 18:35:00,48.4,23.3,30.09,WSW,247,2.7,-999.0,37,-99.99,,,0.04,Acu-Link.com,2013-04-25 22:35:00,
2013-04-25 18:50:00,45.1,22.2,30.08,SW,225,5.8,-999.0,40,-99.99,,,0.04,Acu-Link.com,2013-04-25 22:50:00,
2013-04-25 19:05:00,43.7,22.7,30.11,West,270,4.7,-999.0,43,-99.99,,,0.04,Acu-Link.com,2013-04-25 23:05:00,
2013-04-25 19:21:00,42.3,23.5,30.12,NNW,337,0.0,-999.0,47,-99.99,,,0.04,Acu-Link.com,2013-04-25 23:21:00,
2013-04-25 19:36:00,40.8,24.6,30.13,NW,315,1.7,-999.0,52,-99.99,,,0.04,Acu-Link.com,2013-04-25 23:36:00,
2013-04-25 19:51:00,39.0,23.3,30.15,NW,315,1.7,-999.0,53,-99.99,,,0.04,Acu-Link.com,2013-04-25 23:51:00,
2013-04-25 20:06:00,37.0,23.2,30.15,NNE,22,0.0,-999.0,57,-99.99,,,0.04,Acu-Link.com,2013-04-26 00:06:00,
2013-04-25 20:21:00,35.4,24.1,30.17,North,0,0.0,-999.0,63,-99.99,,,0.04,Acu-Link.com,2013-04-26 00:21:00,
2013-04-25 20:37:00,33.6,23.5,30.18,NE,45,1.7,-999.0,66,-99.99,,,0.04,Acu-Link.com,2013-04-26 00:37:00,
2013-04-25 20:52:00,32.7,23.3,30.19,NNE,22,2.2,-999.0,68,-99.99,,,0.04,Acu-Link.com,2013-04-26 00:52:00,
2013-04-25 21:07:00,32.7,23.3,30.20,North,0,2.2,-999.0,68,-99.99,,,0.04,Acu-Link.com,2013-04-26 01:07:00,
2013-04-25 21:22:00,31.3,23.0,30.21,NE,45,0.0,-999.0,71,-99.99,,,0.04,Acu-Link.com,2013-04-26 01:22:00,
2013-04-25 21:37:00,30.7,22.8,30.22,NNE,22,0.0,-999.0,72,-99.99,,,0.04,Acu-Link.com,2013-04-26 01:37:00,
2013-04-25 21:53:00,29.8,23.2,30.23,NNW,337,0.0,-999.0,76,-99.99,,,0.04,Acu-Link.com,2013-04-26 01:53:00,
2013-04-25 22:08:00,29.1,23.4,30.23,NE,45,0.0,-999.0,79,-99.99,,,0.04,Acu-Link.com,2013-04-26 02:08:00,
2013-04-25 22:23:00,28.4,23.6,30.24,WSW,247,0.0,-999.0,82,-99.99,,,0.04,Acu-Link.com,2013-04-26 02:23:00,
2013-04-25 22:38:00,27.9,23.1,30.25,NNW,337,0.0,-999.0,82,-99.99,,,0.04,Acu-Link.com,2013-04-26 02:38:00,
2013-04-25 22:54:00,27.5,22.7,30.25,WNW,292,0.0,-999.0,82,-99.99,,,0.04,Acu-Link.com,2013-04-26 02:54:00,
2013-04-25 23:09:00,26.8,23.2,30.25,South,180,0.0,-999.0,86,-99.99,,,0.04,Acu-Link.com,2013-04-26 03:09:00,
2013-04-25 23:24:00,26.8,23.5,30.25,SSW,202,0.0,-999.0,87,-99.99,,,0.04,Acu-Link.com,2013-04-26 03:24:00,
2013-04-25 23:39:00,26.1,23.0,30.26,NNE,22,0.0,-999.0,88,-99.99,,,0.04,Acu-Link.com,2013-04-26 03:39:00,
2013-04-25 23:54:00,26.1,23.3,30.27,SSE,157,0.0,-999.0,89,-99.99,,,0.04,Acu-Link.com,2013-04-26 03:54:00,